Regional Weather Roundup
Issued by NWS

Home | Current Version | Previous Version | Text Only | Print | Product List | Glossary Off
Versions: 1 2 3 4 5 6 7 8 9 10 11 12 13 14 15 16 17 18 19 20 21 22 23 24 25 26 27 28 29 30 31 32 33 34 35 36 37 38 39 40 41 42 43 44 45 46 47 48 49 50

000
ASUS43 KLMK 130310
RWRKY
KENTUCKY REGIONAL WEATHER ROUNDUP
NATIONAL WEATHER SERVICE LOUISVILLE KY
1100 PM EDT SAT JUL 12 2014

NOTE "FAIR" INDICATES FEW OR NO CLOUDS BELOW 12,000 FEET
WITH NO SIGNIFICANT WEATHER AND/OR OBSTRUCTIONS TO VISIBILITY.

KYZ001>023-026-027-061>063-070>075-130400-
WESTERN AND SOUTH CENTRAL KENTUCKY

CITY           SKY/WX    TMP DP  RH WIND       PRES   REMARKS
PADUCAH        PTCLDY    82  73  74 S5        30.06R
HENDERSON      MOCLDY    77  72  83 S5        30.04R
OWENSBORO      PTCLDY    79  73  81 S7        30.06R
HOPKINSVILLE   NOT AVBL
BOWLING GREEN  PTCLDY    79  69  71 CALM      30.09R
GLASGOW        MOCLDY    74  65  74 CALM      30.10R
$$

KYZ024-025-028>034-038-045-046-053-130400-
NORTH CENTRAL KENTUCKY

CITY           SKY/WX    TMP DP  RH WIND       PRES   REMARKS
LOUISVILLE/SDF MOCLDY    82  69  64 SW5       30.06R
LOUISVILLE/LOU PTCLDY    82  69  64 S5        30.06R
FORT KNOX      NOT AVBL
$$

KYZ035>037-039>044-047>052-055>060-089>105-130400-
NORTHEAST KENTUCKY

CITY           SKY/WX    TMP DP  RH WIND       PRES   REMARKS
LEXINGTON      PTCLDY    79  65  62 S6        30.10R
COVINGTON      MOCLDY    76  69  79 S5        30.06S
FRANKFORT      MOCLDY    76  69  79 CALM      30.07R
$$

KYZ054-064>069-076>088-106>120-130400-
SOUTHEAST KENTUCKY

CITY           SKY/WX    TMP DP  RH WIND       PRES   REMARKS
JACKSON        CLEAR     78  61  55 CALM      30.14R
LONDON         PTCLDY    74  64  71 CALM      30.14R
SOMERSET       PTCLDY    72  63  73 CALM      30.13S
MIDDLESBORO    PTCLDY    74  64  70 CALM      30.15S
MONTICELLO     PTCLDY    69  66  90 CALM      30.13S
$$



USA.gov is the U.S. government's official web portal to all federal, state and local government web resources and services.